[[{"header":{"parameterUnit":"m.s-1","parameterCategory":1,"la1":30.2991,"la2":30.254,"lo1":-89.0895,"lo2":-89.0444,"dy":0.0017,"dx":0.0017,"nx":28,"ny":28,"refTime":"2023-11-23T03:00:00:Z","depth":0,"parameterNumber":2,"parameterNumberName":"U-component_of_WINDS"},"data":[0,0,0,0,0,0,0,0,0,0,0,0,0,0,0,0,0,0,0,0,0,0,0,0,0,0,0,0,0,0,0,0,0,0,0,0,0,0,0,0,0,0,0,0,0,0,0,0,0,0,0,0,0,0,0,0,0,0,1.5737,1.5736,0,1.5697,1.5697,1.5696,1.5661,1.566,1.566,1.566,1.5617,1.5616,1.5615,0,0,0,0,0,0,0,0,0,0,0,0,0,1.5782,1.5781,1.5737,1.5736,1.5736,1.5697,1.5697,1.5696,1.5661,1.566,1.566,1.5659,1.5617,1.5616,1.5615,0,0,0,0,0,0,0,0,0,0,0,0,0,1.5754,1.5781,1.5737,1.5714,1.5711,1.5697,1.5697,1.5696,1.5661,1.566,1.566,1.5659,1.5617,1.5616,1.5615,1.562,0,0,1.5612,1.5611,0,0,0,0,0,0,0,0,1.5756,1.5752,1.5718,1.5715,1.5713,1.5683,1.5697,1.567,1.5661,1.568,1.5659,1.5659,1.5639,1.5636,1.563,1.5618,1.5616,1.5612,1.5611,1.561,1.561,0,0,0,0,0,0,0,1.5758,1.5754,1.5721,1.5717,1.5714,1.5705,1.57,1.5691,1.5663,1.5678,1.5676,1.5671,1.5638,1.5631,1.5629,1.5616,1.5612,1.5611,1.561,1.5609,1.5607,1.5607,0,0,0,0,0,0,1.5763,1.5756,1.5722,1.572,1.5733,1.5705,1.57,1.5693,1.5663,1.5658,1.5672,1.567,1.5634,1.563,1.5627,1.5631,1.561,1.5609,1.5609,1.5606,1.5607,1.5608,0,0,0,0,0,0,1.5764,1.5761,1.5724,1.5737,1.5732,1.5705,1.5698,1.5693,1.5686,1.5659,1.5653,1.5671,1.5633,1.5629,1.5623,1.5629,1.5609,1.5608,1.5606,1.5606,1.5607,1.564,0,0,0,0,0,0,1.5766,1.5761,1.5763,1.5737,1.5731,1.572,1.5698,1.5692,1.5685,1.5682,1.5656,1.5651,1.5632,1.5624,1.5621,1.5627,1.5607,1.5605,1.5606,1.5607,1.5638,1.5642,1.5645,0,0,0,0,0,1.5767,1.5773,1.5763,1.5759,1.5733,1.5721,1.5717,1.5696,1.5685,1.5687,1.5669,1.5652,1.563,1.5624,1.562,1.5626,1.5604,1.5606,1.5607,1.5636,1.5641,1.5645,0,0,0,0,0,0,1.5799,1.5769,1.5758,1.5756,1.5741,1.5715,1.5716,1.5701,1.5688,1.5686,1.5659,1.5654,1.5651,1.5638,1.5632,1.563,1.5615,1.5615,1.5638,1.5642,1.5646,1.5648,1.5606,0,0,0,0,0,1.5806,1.5799,1.5773,1.5774,1.5767,1.5743,1.5737,1.5722,1.5705,1.5699,1.5681,1.5665,1.5654,1.5648,1.5636,1.5636,1.563,1.5639,1.5642,1.5645,1.5646,1.5645,1.5648,1.5612,1.5612,1.5612,0,0,1.582,1.5803,1.58,1.578,1.5767,1.576,1.5738,1.5731,1.5726,1.5697,1.569,1.5677,1.5658,1.5655,1.5653,1.5644,1.5655,1.5647,1.565,1.5648,1.5647,1.565,1.5653,1.5613,1.5613,1.5613,0,0,1.5841,1.5828,1.5827,1.5815,1.5796,1.578,1.578,1.5756,1.5746,1.5739,1.5718,1.5711,1.5693,1.568,1.5672,1.569,1.5674,1.5687,1.5705,1.5705,1.5707,1.571,1.5716,1.5719,1.5688,1.5688,1.5688,0,1.5861,1.585,1.5828,1.5823,1.5815,1.579,1.5789,1.5778,1.5756,1.5751,1.5742,1.572,1.5705,1.5699,1.5704,1.5698,1.5696,1.5689,1.5709,1.5711,1.5713,1.5719,1.5721,1.569,1.569,1.569,1.569,0,1.5874,1.5867,1.5869,1.5849,1.5841,1.5838,1.5816,1.5811,1.5797,1.5782,1.5775,1.5757,1.5742,1.5739,1.5725,1.5732,1.5727,1.5714,1.5698,1.5719,1.5723,1.5725,1.5693,1.5692,1.5691,1.5691,0,0,1.5913,1.5883,1.5884,1.5875,1.5853,1.5846,1.5843,1.5829,1.5824,1.5811,1.5806,1.5793,1.5781,1.5771,1.5756,1.5755,1.5771,1.5742,1.5742,1.5748,1.5777,1.5786,1.5789,1.5761,1.5761,1.5761,1.5778,0,1.593,1.5922,1.5903,1.5901,1.5894,1.5871,1.5868,1.5854,1.584,1.5832,1.5817,1.5808,1.5793,1.5787,1.5786,1.577,1.5776,1.5768,1.5756,1.5756,1.5761,1.5791,1.5801,1.5817,1.578,1.578,1.5781,0,1.5949,1.5937,1.5934,1.5914,1.591,1.5907,1.5893,1.5886,1.587,1.586,1.585,1.5834,1.5828,1.5814,1.5806,1.5801,1.5795,1.5787,1.5787,1.5784,1.5769,1.5789,1.5822,1.5825,1.5783,1.5783,1.5783,0,1.5977,1.5961,1.5957,1.595,1.5926,1.5924,1.5914,1.5897,1.5891,1.5878,1.5874,1.5861,1.5854,1.5844,1.5825,1.5817,1.5819,1.5803,1.581,1.5811,1.581,1.5811,1.5843,1.5808,1.5808,1.5808,1.5808,0,1.5997,1.5996,1.5969,1.5967,1.5965,1.5944,1.5943,1.593,1.5916,1.5911,1.589,1.5886,1.5861,1.5853,1.5838,1.5834,1.5831,1.5822,1.5818,1.5824,1.5825,1.5818,1.5816,1.5809,1.5809,1.5809,1.5809,0,1.6027,1.6009,1.6004,1.5982,1.5976,1.5976,1.5957,1.5954,1.594,1.5933,1.5931,1.5908,1.5899,1.5879,1.5863,1.5853,1.5852,1.5845,1.5858,1.5855,1.5862,1.5862,1.5891,1.5894,1.5859,1.5859,1.5859,0,1.6041,1.604,1.6018,1.6014,1.6005,1.5997,1.5991,1.597,1.5964,1.5946,1.5945,1.5934,1.5924,1.5909,1.5892,1.588,1.5872,1.5883,1.587,1.5876,1.5871,1.5871,1.5871,1.5886,1.5886,1.5887,1.5887,0,1.6067,1.6059,1.605,1.6039,1.6031,1.6021,1.601,1.6007,1.5984,1.5978,1.5968,1.596,1.5945,1.5935,1.5921,1.5909,1.5894,1.5892,1.5892,1.5897,1.5905,1.59,1.5865,1.5891,1.589,1.589,1.589,1.589,1.6089,1.6087,1.6072,1.6063,1.6053,1.6043,1.6039,1.6025,1.6017,1.6004,1.5992,1.5984,1.5968,1.5948,1.5938,1.5931,1.5923,1.5925,1.5925,1.5925,1.5928,1.5907,1.5928,1.5928,1.5928,1.5928,1.5928,0,1.6114,1.6104,1.6096,1.6081,1.6074,1.6062,1.6049,1.6044,1.6037,1.6024,1.6015,1.6004,1.5994,1.5976,1.5965,1.5962,1.5955,1.596,1.5959,1.5957,1.5935,1.5935,1.5966,1.5966,1.5966,1.5966,1.5966,1.5966,1.6126,1.6122,1.6112,1.6103,1.6093,1.6085,1.6078,1.6069,1.6059,1.6048,1.604,1.6029,1.6014,1.6001,1.5992,1.5987,1.5983,1.599,1.5983,1.5962,1.5959,1.5955,1.5955,1.599,1.599,1.6005,1.6005,1.6005]},{"header":{"parameterUnit":"m.s-1","parameterCategory":1,"la1":30.2991,"la2":30.254,"lo1":-89.0895,"lo2":-89.0444,"dy":0.0017,"dx":0.0017,"nx":28,"ny":28,"refTime":"2023-11-23T03:00:00:Z","depth":0,"parameterNumber":3,"parameterNumberName":"V-component_of_WINDS"},"data":[0,0,0,0,0,0,0,0,0,0,0,0,0,0,0,0,0,0,0,0,0,0,0,0,0,0,0,0,0,0,0,0,0,0,0,0,0,0,0,0,0,0,0,0,0,0,0,0,0,0,0,0,0,0,0,0,0,0,-4.388,-4.3881,0,-4.4025,-4.4027,-4.4029,-4.3945,-4.3941,-4.3936,-4.3933,-4.408,-4.4087,-4.4095,0,0,0,0,0,0,0,0,0,0,0,0,0,-4.3526,-4.3533,-4.388,-4.3881,-4.3883,-4.4025,-4.4027,-4.4029,-4.3945,-4.394,-4.3935,-4.3931,-4.4077,-4.4086,-4.4095,0,0,0,0,0,0,0,0,0,0,0,0,0,-4.3677,-4.3535,-4.3879,-4.3859,-4.3858,-4.4025,-4.4027,-4.403,-4.3946,-4.394,-4.3934,-4.3928,-4.4074,-4.4085,-4.4097,-4.4291,0,0,-4.4132,-4.4137,0,0,0,0,0,0,0,0,-4.3668,-4.369,-4.386,-4.386,-4.386,-4.3961,-4.3956,-4.4117,-4.3948,-4.3913,-4.3932,-4.3925,-4.4045,-4.4058,-4.4099,-4.4298,-4.4304,-4.4133,-4.414,-4.4145,-4.4148,0,0,0,0,0,0,0,-4.3658,-4.3683,-4.3937,-4.3862,-4.3863,-4.3841,-4.3856,-4.3986,-4.4011,-4.3915,-4.391,-4.3928,-4.4044,-4.4088,-4.4102,-4.4307,-4.4133,-4.4143,-4.415,-4.4155,-4.4672,-4.4679,0,0,0,0,0,0,-4.3649,-4.3675,-4.3932,-4.3941,-4.3747,-4.3853,-4.3869,-4.3935,-4.401,-4.4015,-4.3933,-4.3924,-4.4071,-4.4089,-4.4107,-4.434,-4.4145,-4.4156,-4.4163,-4.4666,-4.4674,-4.4681,0,0,0,0,0,0,-4.3642,-4.3673,-4.3927,-4.3807,-4.3837,-4.3865,-4.394,-4.3941,-4.3985,-4.4023,-4.4027,-4.3975,-4.4067,-4.4091,-4.4246,-4.4344,-4.4161,-4.4172,-4.4658,-4.4668,-4.4677,-4.4808,0,0,0,0,0,0,-4.3632,-4.3671,-4.3746,-4.3809,-4.3844,-4.4065,-4.3946,-4.3948,-4.4006,-4.3995,-4.4063,-4.4068,-4.4064,-4.4229,-4.4258,-4.4356,-4.4181,-4.4649,-4.4662,-4.4674,-4.4795,-4.4821,-4.4843,0,0,0,0,0,-4.362,-4.3776,-4.375,-4.3782,-4.3938,-4.4071,-4.4091,-4.4083,-4.4014,-4.4089,-4.4113,-4.4066,-4.4328,-4.4246,-4.4277,-4.4381,-4.4643,-4.4658,-4.4673,-4.4784,-4.4816,-4.4843,0,0,0,0,0,0,-4.3723,-4.3784,-4.3756,-4.3937,-4.4,-4.4056,-4.4151,-4.4117,-4.42,-4.4186,-4.4173,-4.4189,-4.4351,-4.4381,-4.4289,-4.4573,-4.4475,-4.4497,-4.4548,-4.4579,-4.4603,-4.4592,-4.419,0,0,0,0,0,-4.3767,-4.387,-4.3917,-4.4073,-4.4105,-4.4123,-4.418,-4.417,-4.4233,-4.4259,-4.4294,-4.4357,-4.4454,-4.4518,-4.4608,-4.4798,-4.4812,-4.4885,-4.4909,-4.4929,-4.4949,-4.5051,-4.5084,-4.4731,-4.4731,-4.4731,0,0,-4.3858,-4.3904,-4.397,-4.4095,-4.4141,-4.4248,-4.4146,-4.4263,-4.4341,-4.4276,-4.4426,-4.4454,-4.4523,-4.4697,-4.4775,-4.4727,-4.5049,-4.4948,-4.4964,-4.4973,-4.507,-4.5104,-4.5134,-4.4742,-4.474,-4.4738,0,0,-4.408,-4.4125,-4.426,-4.4309,-4.4382,-4.4392,-4.4425,-4.4487,-4.4504,-4.4654,-4.4607,-4.47,-4.4866,-4.4918,-4.4966,-4.5207,-4.5166,-4.5236,-4.5364,-4.5464,-4.5492,-4.5517,-4.5603,-4.5634,-4.5255,-4.5256,-4.5256,0,-4.4185,-4.4344,-4.4333,-4.4454,-4.451,-4.4457,-4.4593,-4.4641,-4.4739,-4.4779,-4.4723,-4.4931,-4.4974,-4.5159,-4.5218,-4.5258,-4.5295,-4.5229,-4.5489,-4.5514,-4.5536,-4.5619,-4.5651,-4.5264,-4.5263,-4.5262,-4.5261,0,-4.4469,-4.458,-4.468,-4.4778,-4.4845,-4.4973,-4.4981,-4.505,-4.5033,-4.5049,-4.5202,-4.5252,-4.5352,-4.5395,-4.5379,-4.5578,-4.5546,-4.549,-4.5391,-4.5578,-4.5655,-4.5687,-4.5276,-4.5273,-4.527,-4.5268,0,0,-4.4761,-4.485,-4.4888,-4.4931,-4.5007,-4.5092,-4.5217,-4.5316,-4.5376,-4.5445,-4.5549,-4.5691,-4.5641,-4.5695,-4.5684,-4.5772,-4.5961,-4.5706,-4.5707,-4.5752,-4.6183,-4.6225,-4.6262,-4.5934,-4.594,-4.5945,-4.6178,0,-4.4988,-4.5207,-4.5201,-4.5406,-4.5508,-4.5458,-4.5567,-4.5625,-4.5644,-4.5733,-4.5752,-4.5854,-4.5778,-4.5811,-4.5896,-4.592,-4.6047,-4.5903,-4.6031,-4.6035,-4.6016,-4.6302,-4.6347,-4.6565,-4.6208,-4.6213,-4.6216,0,-4.5282,-4.5362,-4.5577,-4.5638,-4.5681,-4.5779,-4.5869,-4.5955,-4.6019,-4.6026,-4.6088,-4.6063,-4.6189,-4.6086,-4.6259,-4.6161,-4.6213,-4.6233,-4.6241,-4.6253,-4.6138,-4.6323,-4.6634,-4.6667,-4.6264,-4.626,-4.6256,0,-4.5474,-4.5636,-4.5785,-4.5824,-4.5899,-4.5969,-4.6003,-4.6061,-4.6121,-4.6199,-4.6238,-4.6329,-4.638,-4.6451,-4.6451,-4.6376,-4.6627,-4.6523,-4.6636,-4.6636,-4.6692,-4.6689,-4.7017,-4.6724,-4.6724,-4.6723,-4.6722,0,-4.5729,-4.5862,-4.5872,-4.5965,-4.6113,-4.6104,-4.625,-4.6277,-4.633,-4.6426,-4.6387,-4.6478,-4.6473,-4.6564,-4.6565,-4.6709,-4.6732,-4.6741,-4.6739,-4.6745,-4.6744,-4.6779,-4.6764,-4.6732,-4.673,-4.6728,-4.6727,0,-4.5969,-4.5981,-4.6141,-4.6198,-4.6216,-4.6323,-4.6371,-4.6459,-4.6473,-4.6595,-4.6623,-4.6646,-4.6752,-4.676,-4.6882,-4.6882,-4.7057,-4.7038,-4.7036,-4.7033,-4.7145,-4.7135,-4.7508,-4.7556,-4.7232,-4.7235,-4.7237,0,-4.6131,-4.6233,-4.6302,-4.6364,-4.6402,-4.6502,-4.6563,-4.6558,-4.6623,-4.6704,-4.6782,-4.6884,-4.6966,-4.7137,-4.7164,-4.7257,-4.7241,-4.7365,-4.7255,-4.7257,-4.7244,-4.7238,-4.7249,-4.7387,-4.7391,-4.7394,-4.7396,0,-4.6418,-4.6419,-4.6509,-4.6601,-4.6675,-4.6747,-4.6815,-4.6867,-4.687,-4.6945,-4.7053,-4.7117,-4.7241,-4.7344,-4.7435,-4.7468,-4.7434,-4.7431,-4.7462,-4.7469,-4.7463,-4.7469,-4.7095,-4.7422,-4.742,-4.7418,-4.7416,-4.7415,-4.6625,-4.6713,-4.6775,-4.6877,-4.6927,-4.699,-4.7075,-4.7101,-4.7191,-4.7294,-4.7284,-4.7405,-4.7466,-4.7584,-4.7626,-4.7719,-4.7677,-4.7722,-4.7733,-4.7745,-4.7757,-4.7448,-4.7735,-4.7735,-4.7734,-4.7733,-4.7733,0,-4.691,-4.6948,-4.7041,-4.7137,-4.7217,-4.7177,-4.7249,-4.7318,-4.7425,-4.7485,-4.7567,-4.7691,-4.779,-4.7825,-4.7921,-4.7989,-4.7975,-4.8014,-4.8009,-4.8018,-4.7789,-4.7753,-4.8024,-4.8024,-4.8023,-4.8023,-4.8023,-4.8023,-4.7068,-4.7216,-4.7224,-4.7396,-4.7432,-4.755,-4.7595,-4.7653,-4.7702,-4.7843,-4.7925,-4.7947,-4.7997,-4.8097,-4.8185,-4.8193,-4.823,-4.8277,-4.8278,-4.8063,-4.8034,-4.8006,-4.7972,-4.8285,-4.8285,-4.8499,-4.8501,-4.8502]}]]